Time,TemperatureF,DewpointF,PressureIn,WindDirection,WindDirectionDegrees,WindSpeedMPH,WindSpeedGustMPH,Humidity,HourlyPrecipIn,Conditions,Clouds,dailyrainin,SoftwareType,DateUTC
2013-01-19 00:02:00,39.0,12.0,29.99,West,270,6.0,-999.0,32,-99.99,,,-99.99,,2013-01-19 07:02:00,
2013-01-19 00:11:00,39.0,12.0,29.99,West,270,6.0,-999.0,32,-99.99,,,-99.99,,2013-01-19 07:11:00,
2013-01-19 00:22:00,39.0,12.0,29.99,West,270,6.0,-999.0,32,-99.99,,,-99.99,,2013-01-19 07:22:00,
2013-01-19 00:32:00,37.0,12.0,30.00,North,0,0.0,-999.0,34,-99.99,,,-99.99,,2013-01-19 07:32:00,
2013-01-19 00:43:00,37.0,12.0,30.00,North,0,0.0,-999.0,34,-99.99,,,-99.99,,2013-01-19 07:43:00,
2013-01-19 00:52:00,36.0,10.0,30.01,North,0,0.0,-999.0,34,-99.99,,,-99.99,,2013-01-19 07:52:00,
2013-01-19 01:02:00,36.0,10.0,30.01,North,0,0.0,-999.0,34,-99.99,,,-99.99,,2013-01-19 08:02:00,
2013-01-19 01:11:00,36.0,12.0,30.02,West,260,5.0,-999.0,37,-99.99,,,-99.99,,2013-01-19 08:11:00,
2013-01-19 01:22:00,36.0,12.0,30.02,West,260,5.0,-999.0,37,-99.99,,,-99.99,,2013-01-19 08:22:00,
2013-01-19 01:32:00,34.0,10.0,30.02,North,0,0.0,-999.0,37,-99.99,,,-99.99,,2013-01-19 08:32:00,
2013-01-19 01:42:00,34.0,10.0,30.02,North,0,0.0,-999.0,37,-99.99,,,-99.99,,2013-01-19 08:42:00,
2013-01-19 01:52:00,34.0,10.0,30.02,North,0,0.0,-999.0,37,-99.99,,,-99.99,,2013-01-19 08:52:00,
2013-01-19 02:02:00,34.0,10.0,30.02,North,0,0.0,-999.0,37,-99.99,,,-99.99,,2013-01-19 09:02:00,
2013-01-19 02:22:00,34.0,10.0,30.02,North,0,0.0,-999.0,37,-99.99,,,-99.99,,2013-01-19 09:22:00,
2013-01-19 02:32:00,34.0,12.0,30.03,WNW,290,7.0,-999.0,40,-99.99,,,-99.99,,2013-01-19 09:32:00,
2013-01-19 02:43:00,34.0,12.0,30.03,WNW,290,7.0,-999.0,40,-99.99,,,-99.99,,2013-01-19 09:43:00,
2013-01-19 02:52:00,30.0,10.0,30.04,WNW,290,6.0,-999.0,43,-99.99,,,-99.99,,2013-01-19 09:52:00,
2013-01-19 03:02:00,30.0,10.0,30.04,WNW,290,6.0,-999.0,43,-99.99,,,-99.99,,2013-01-19 10:02:00,
2013-01-19 03:32:00,36.0,10.0,30.04,SSW,200,6.0,-999.0,34,-99.99,,,-99.99,,2013-01-19 10:32:00,
2013-01-19 03:43:00,36.0,10.0,30.04,SSW,200,6.0,-999.0,34,-99.99,,,-99.99,,2013-01-19 10:43:00,
2013-01-19 03:53:00,34.0,10.0,30.05,SSW,200,6.0,-999.0,37,-99.99,,,-99.99,,2013-01-19 10:53:00,
2013-01-19 04:02:00,34.0,10.0,30.05,SSW,200,6.0,-999.0,37,-99.99,,,-99.99,,2013-01-19 11:02:00,
2013-01-19 04:12:00,30.0,10.0,30.06,SSW,210,7.0,-999.0,43,-99.99,,,-99.99,,2013-01-19 11:12:00,
2013-01-19 05:52:00,30.0,10.0,30.08,SSW,210,8.0,-999.0,43,-99.99,,,-99.99,,2013-01-19 12:52:00,
2013-01-19 06:02:00,30.0,10.0,30.08,SSW,210,8.0,-999.0,43,-99.99,,,-99.99,,2013-01-19 13:02:00,
2013-01-19 06:12:00,30.0,10.0,30.08,SSW,210,9.0,-999.0,43,-99.99,,,-99.99,,2013-01-19 13:12:00,
2013-01-19 06:22:00,30.0,10.0,30.08,SSW,210,9.0,-999.0,43,-99.99,,,-99.99,,2013-01-19 13:22:00,
2013-01-19 06:33:00,28.0,10.0,30.09,SW,220,7.0,-999.0,46,-99.99,,,-99.99,,2013-01-19 13:33:00,
2013-01-19 06:42:00,28.0,10.0,30.09,SW,220,7.0,-999.0,46,-99.99,,,-99.99,,2013-01-19 13:42:00,
2013-01-19 06:52:00,28.0,10.0,30.09,SW,220,7.0,-999.0,46,-99.99,,,-99.99,,2013-01-19 13:52:00,
2013-01-19 07:02:00,28.0,10.0,30.09,SW,220,7.0,-999.0,46,-99.99,,,-99.99,,2013-01-19 14:02:00,
2013-01-19 07:12:00,28.0,10.0,30.10,SW,220,5.0,-999.0,46,-99.99,,,-99.99,,2013-01-19 14:12:00,
2013-01-19 07:22:00,28.0,10.0,30.10,SW,220,5.0,-999.0,46,-99.99,,,-99.99,,2013-01-19 14:22:00,
2013-01-19 07:33:00,27.0,10.0,30.10,North,0,0.0,-999.0,49,-99.99,,,-99.99,,2013-01-19 14:33:00,
2013-01-19 07:42:00,27.0,10.0,30.10,North,0,0.0,-999.0,49,-99.99,,,-99.99,,2013-01-19 14:42:00,
2013-01-19 07:52:00,27.0,10.0,30.10,SW,220,7.0,-999.0,49,-99.99,,,-99.99,,2013-01-19 14:52:00,
2013-01-19 08:02:00,27.0,10.0,30.10,SW,220,7.0,-999.0,49,-99.99,,,-99.99,,2013-01-19 15:02:00,
2013-01-19 08:33:00,27.0,10.0,30.11,North,0,0.0,-999.0,49,-99.99,,,-99.99,,2013-01-19 15:33:00,
2013-01-19 08:43:00,27.0,10.0,30.11,North,0,0.0,-999.0,49,-99.99,,,-99.99,,2013-01-19 15:43:00,
2013-01-19 08:53:00,28.0,9.0,30.13,North,0,0.0,-999.0,42,-99.99,,,-99.99,,2013-01-19 15:53:00,
2013-01-19 09:02:00,28.0,9.0,30.13,North,0,0.0,-999.0,42,-99.99,,,-99.99,,2013-01-19 16:02:00,
2013-01-19 09:12:00,28.0,9.0,30.15,North,0,0.0,-999.0,42,-99.99,,,-99.99,,2013-01-19 16:12:00,
2013-01-19 09:23:00,28.0,9.0,30.15,North,0,0.0,-999.0,42,-99.99,,,-99.99,,2013-01-19 16:23:00,
2013-01-19 09:32:00,30.0,10.0,30.15,SSW,210,6.0,-999.0,43,-99.99,,,-99.99,,2013-01-19 16:32:00,
2013-01-19 09:42:00,30.0,10.0,30.15,SSW,210,6.0,-999.0,43,-99.99,,,-99.99,,2013-01-19 16:42:00,
2013-01-19 09:53:00,30.0,10.0,30.16,SSW,210,5.0,-999.0,43,-99.99,,,-99.99,,2013-01-19 16:53:00,
2013-01-19 10:02:00,30.0,10.0,30.16,SSW,210,5.0,-999.0,43,-99.99,,,-99.99,,2013-01-19 17:02:00,
2013-01-19 10:26:00,30.0,10.0,30.16,SSW,210,5.0,-999.0,43,-99.99,,,-99.99,,2013-01-19 17:26:00,
2013-01-19 10:33:00,34.0,12.0,30.19,North,0,0.0,-999.0,40,-99.99,,,-99.99,,2013-01-19 17:33:00,
2013-01-19 10:49:00,34.0,12.0,30.19,North,0,0.0,-999.0,40,-99.99,,,-99.99,,2013-01-19 17:49:00,
2013-01-19 11:04:00,36.0,16.0,30.19,North,360,10.0,-999.0,43,-99.99,,,-99.99,,2013-01-19 18:04:00,
2013-01-19 11:11:00,37.0,16.0,30.20,NNE,30,9.0,-999.0,40,-99.99,,,-99.99,,2013-01-19 18:11:00,
2013-01-19 11:25:00,37.0,16.0,30.20,NNE,30,9.0,-999.0,40,-99.99,,,-99.99,,2013-01-19 18:25:00,
2013-01-19 11:33:00,37.0,18.0,30.20,NNE,30,8.0,-999.0,44,-99.99,,,-99.99,,2013-01-19 18:33:00,
2013-01-19 11:44:00,37.0,18.0,30.20,NNE,30,8.0,-999.0,44,-99.99,,,-99.99,,2013-01-19 18:44:00,
2013-01-19 11:53:00,37.0,18.0,30.19,NE,50,7.0,-999.0,44,-99.99,,,-99.99,,2013-01-19 18:53:00,
2013-01-19 12:04:00,37.0,18.0,30.19,NE,50,7.0,-999.0,44,-99.99,,,-99.99,,2013-01-19 19:04:00,
2013-01-19 12:26:00,37.0,19.0,30.19,NE,40,9.0,-999.0,47,-99.99,,,-99.99,,2013-01-19 19:26:00,
2013-01-19 12:44:00,39.0,19.0,30.18,NE,50,6.0,-999.0,44,-99.99,,,-99.99,,2013-01-19 19:44:00,
2013-01-19 12:53:00,39.0,19.0,30.18,NNE,30,9.0,-999.0,44,-99.99,,,-99.99,,2013-01-19 19:53:00,
2013-01-19 13:05:00,39.0,19.0,30.18,NNE,30,9.0,-999.0,44,-99.99,,,-99.99,,2013-01-19 20:05:00,
2013-01-19 13:12:00,39.0,19.0,30.18,NNE,30,9.0,-999.0,44,-99.99,,,-99.99,,2013-01-19 20:12:00,
2013-01-19 13:23:00,39.0,19.0,30.18,NNE,30,9.0,-999.0,44,-99.99,,,-99.99,,2013-01-19 20:23:00,
2013-01-19 13:34:00,39.0,19.0,30.17,NNE,30,8.0,-999.0,44,-99.99,,,-99.99,,2013-01-19 20:34:00,
2013-01-19 13:49:00,39.0,19.0,30.17,NNE,30,8.0,-999.0,44,-99.99,,,-99.99,,2013-01-19 20:49:00,
2013-01-19 13:55:00,39.0,21.0,30.16,NE,40,9.0,-999.0,48,-99.99,,,-99.99,,2013-01-19 20:55:00,
2013-01-19 14:03:00,39.0,21.0,30.16,NE,40,9.0,-999.0,48,-99.99,,,-99.99,,2013-01-19 21:03:00,
2013-01-19 14:12:00,39.0,21.0,30.17,NNE,20,6.0,-999.0,48,-99.99,,,-99.99,,2013-01-19 21:12:00,
2013-01-19 14:23:00,39.0,21.0,30.17,NNE,20,6.0,-999.0,48,-99.99,,,-99.99,,2013-01-19 21:23:00,
2013-01-19 14:34:00,37.0,21.0,30.16,NNE,30,6.0,-999.0,51,-99.99,,,-99.99,,2013-01-19 21:34:00,
2013-01-19 14:47:00,37.0,21.0,30.16,NNE,30,6.0,-999.0,51,-99.99,,,-99.99,,2013-01-19 21:47:00,
2013-01-19 15:05:00,37.0,21.0,30.17,North,10,8.0,-999.0,51,-99.99,,,-99.99,,2013-01-19 22:05:00,
2013-01-19 15:12:00,37.0,21.0,30.17,North,10,8.0,-999.0,51,-99.99,,,-99.99,,2013-01-19 22:12:00,
2013-01-19 15:24:00,37.0,21.0,30.17,North,10,8.0,-999.0,51,-99.99,,,-99.99,,2013-01-19 22:24:00,
2013-01-19 15:33:00,37.0,21.0,30.15,North,10,9.0,-999.0,51,-99.99,,,-99.99,,2013-01-19 22:33:00,
2013-01-19 15:48:00,37.0,21.0,30.15,North,10,9.0,-999.0,51,-99.99,,,-99.99,,2013-01-19 22:48:00,
2013-01-19 15:56:00,36.0,21.0,30.15,NNE,20,8.0,-999.0,55,-99.99,,,-99.99,,2013-01-19 22:56:00,
2013-01-19 16:24:00,36.0,21.0,30.15,NNE,20,8.0,-999.0,55,-99.99,,,-99.99,,2013-01-19 23:24:00,
2013-01-19 16:33:00,36.0,21.0,30.14,NNE,20,6.0,-999.0,55,-99.99,,,-99.99,,2013-01-19 23:33:00,
2013-01-19 16:44:00,36.0,21.0,30.14,NNE,20,6.0,-999.0,55,-99.99,,,-99.99,,2013-01-19 23:44:00,
2013-01-19 16:54:00,36.0,21.0,30.14,NNE,20,8.0,-999.0,55,-99.99,,,-99.99,,2013-01-19 23:54:00,
2013-01-19 17:06:00,36.0,21.0,30.14,NNE,20,8.0,-999.0,55,-99.99,,,-99.99,,2013-01-20 00:06:00,
2013-01-19 17:23:00,36.0,21.0,30.14,NNE,20,8.0,-999.0,55,-99.99,,,-99.99,,2013-01-20 00:23:00,
2013-01-19 17:47:00,30.0,19.0,30.13,NNE,20,6.0,-999.0,63,-99.99,,,-99.99,,2013-01-20 00:47:00,
2013-01-19 17:55:00,30.0,19.0,30.13,North,10,6.0,-999.0,63,-99.99,,,-99.99,,2013-01-20 00:55:00,
2013-01-19 18:03:00,30.0,19.0,30.13,North,10,6.0,-999.0,63,-99.99,,,-99.99,,2013-01-20 01:03:00,
2013-01-19 18:24:00,30.0,19.0,30.13,North,10,6.0,-999.0,63,-99.99,,,-99.99,,2013-01-20 01:24:00,
2013-01-19 18:33:00,28.0,18.0,30.11,NNW,340,7.0,-999.0,63,-99.99,,,-99.99,,2013-01-20 01:33:00,
2013-01-19 18:50:00,28.0,18.0,30.11,NNW,340,7.0,-999.0,63,-99.99,,,-99.99,,2013-01-20 01:50:00,
2013-01-19 19:03:00,28.0,16.0,30.11,North,0,0.0,-999.0,58,-99.99,,,-99.99,,2013-01-20 02:03:00,
2013-01-19 19:12:00,28.0,16.0,30.10,North,0,0.0,-999.0,58,-99.99,,,-99.99,,2013-01-20 02:12:00,
2013-01-19 19:24:00,28.0,16.0,30.10,North,0,0.0,-999.0,58,-99.99,,,-99.99,,2013-01-20 02:24:00,
2013-01-19 19:34:00,25.0,16.0,30.09,NNW,340,6.0,-999.0,68,-99.99,,,-99.99,,2013-01-20 02:34:00,
2013-01-19 19:43:00,25.0,16.0,30.09,NNW,340,6.0,-999.0,68,-99.99,,,-99.99,,2013-01-20 02:43:00,
2013-01-19 19:53:00,25.0,10.0,30.09,NNW,330,6.0,-999.0,53,-99.99,,,-99.99,,2013-01-20 02:53:00,
2013-01-19 20:12:00,27.0,12.0,30.09,North,0,0.0,-999.0,54,-99.99,,,-99.99,,2013-01-20 03:12:00,
2013-01-19 20:23:00,27.0,12.0,30.09,North,0,0.0,-999.0,54,-99.99,,,-99.99,,2013-01-20 03:23:00,
2013-01-19 20:33:00,23.0,14.0,30.08,NW,320,5.0,-999.0,67,-99.99,,,-99.99,,2013-01-20 03:33:00,
2013-01-19 20:44:00,23.0,14.0,30.08,NW,320,5.0,-999.0,67,-99.99,,,-99.99,,2013-01-20 03:44:00,
2013-01-19 20:52:00,23.0,14.0,30.07,NW,320,6.0,-999.0,67,-99.99,,,-99.99,,2013-01-20 03:52:00,
2013-01-19 21:03:00,23.0,14.0,30.07,NW,320,6.0,-999.0,67,-99.99,,,-99.99,,2013-01-20 04:03:00,
2013-01-19 21:23:00,23.0,14.0,30.07,NW,320,6.0,-999.0,67,-99.99,,,-99.99,,2013-01-20 04:23:00,
2013-01-19 21:33:00,25.0,16.0,30.06,North,0,0.0,-999.0,68,-99.99,,,-99.99,,2013-01-20 04:33:00,
2013-01-19 21:45:00,25.0,16.0,30.06,North,0,0.0,-999.0,68,-99.99,,,-99.99,,2013-01-20 04:45:00,
2013-01-19 21:55:00,27.0,16.0,30.06,North,0,0.0,-999.0,63,-99.99,,,-99.99,,2013-01-20 04:55:00,
2013-01-19 22:03:00,27.0,16.0,30.06,North,0,0.0,-999.0,63,-99.99,,,-99.99,,2013-01-20 05:03:00,
2013-01-19 22:12:00,27.0,16.0,30.06,North,0,0.0,-999.0,63,-99.99,,,-99.99,,2013-01-20 05:12:00,
2013-01-19 22:22:00,27.0,16.0,30.06,North,0,0.0,-999.0,63,-99.99,,,-99.99,,2013-01-20 05:22:00,
2013-01-19 22:32:00,27.0,16.0,30.06,North,0,0.0,-999.0,63,-99.99,,,-99.99,,2013-01-20 05:32:00,
2013-01-19 22:42:00,27.0,16.0,30.06,North,0,0.0,-999.0,63,-99.99,,,-99.99,,2013-01-20 05:42:00,
2013-01-19 22:52:00,27.0,14.0,30.06,WNW,290,5.0,-999.0,58,-99.99,,,-99.99,,2013-01-20 05:52:00,
2013-01-19 23:02:00,27.0,14.0,30.06,WNW,290,5.0,-999.0,58,-99.99,,,-99.99,,2013-01-20 06:02:00,
2013-01-19 23:11:00,27.0,14.0,30.06,WNW,290,5.0,-999.0,58,-99.99,,,-99.99,,2013-01-20 06:11:00,
2013-01-19 23:22:00,27.0,14.0,30.06,WNW,290,5.0,-999.0,58,-99.99,,,-99.99,,2013-01-20 06:22:00,
2013-01-19 23:32:00,27.0,12.0,30.06,WSW,240,8.0,-999.0,54,-99.99,,,-99.99,,2013-01-20 06:32:00,
2013-01-19 23:43:00,27.0,12.0,30.06,WSW,240,8.0,-999.0,54,-99.99,,,-99.99,,2013-01-20 06:43:00,
2013-01-19 23:53:00,27.0,12.0,30.07,SSW,210,5.0,-999.0,54,-99.99,,,-99.99,,2013-01-20 06:53:00,